Middletown, PA

11:57 AM EDT on August 17, 2017 (GMT -0400)
Harrisburg International

Weather History for KMDT - February, 2013

Change the Weather History Date:

Monday, February 11, 2013

  Actual Average Record
Temperature  
Mean Temperature 40 °F 32 °F  
Max Temperature 48 °F 40 °F 63 °F (2009)
Min Temperature 32 °F 24 °F -10 °F (1899)
Degree Days  
Heating Degree Days 25 33  
Month to date heating degree days 397 375  
Since 1 July heating degree days 3264 3464  
Cooling Degree Days 0 0  
Month to date cooling degree days 0 0  
Year to date cooling degree days 0 0  
Moisture  
Dew Point 35 °F    
Average Humidity 76    
Maximum Humidity 100    
Minimum Humidity 52    
Precipitation  
Precipitation 0.26 in 0.08 in 2.00 in (1983)
Month to date precipitation 0.41 0.92  
Year to date precipitation 3.62 3.80  
Snow  
Snow 0.00 in 0.40 in 24.00 in (1983)
Month to date snowfall 1.0 4.3  
Since 1 July snowfall 10.8 18.8  
Snow Depth 0.00 in    
Sea Level Pressure  
Sea Level Pressure 29.87 in    
Wind  
Wind Speed 6 mph (ESE)    
Max Wind Speed 25 mph    
Max Gust Speed 32 mph    
Visibility 4 miles    
Events Fog , Rain    
T = Trace of Precipitation, MM = Missing Value Source: NWS Daily Summary

Daily Weather History Graph

Daily Weather History Graph

Search for Another Location

Airport or City:

Trip Planner

Search our weather history database for the weather conditions in past years. The results will help you decide how hot, cold, wet, or windy it might be!

Date:

Astronomy

Feb. 11, 2013 Rise Set
Actual Time 7:04 AM EST 5:38 PM EST
Civil Twilight 6:36 AM EST 6:06 PM EST
Nautical Twilight 6:04 AM EST 6:38 PM EST
Astronomical Twilight 5:33 AM EST 7:09 PM EST
Moon 7:27 AM EST (2/11) 7:32 PM EST (2/11)
Length of Visible Light 11h 29m
Length of Day
10h 33m
Waxing Crescent, 3% of the Moon is Illuminated
Feb 11
Waxing Crescent
Feb 17
First Quarter
Feb 25
Full
Mar 4
Last Quarter
Mar 11
New

Hourly Weather History & Observations

Time (EST) Temp. Windchill Dew Point Humidity Pressure Visibility Wind Dir Wind Speed Gust Speed Precip Events Conditions
12:56 AM 34.0 °F 27.2 °F 21.0 °F 59% 30.22 in 10.0 mi ESE 8.1 mph - N/A   Overcast
1:56 AM 34.0 °F 28.0 °F 21.9 °F 61% 30.19 in 10.0 mi ESE 6.9 mph - N/A   Overcast
2:56 AM 33.1 °F 27.7 °F 27.0 °F 78% 30.17 in 5.0 mi ESE 5.8 mph - 0.01 in Rain Light Rain
3:56 AM 32.0 °F 25.6 °F 30.9 °F 96% 30.12 in 2.5 mi East 6.9 mph - 0.06 in Rain Rain
4:38 AM 33.8 °F 27.0 °F 30.2 °F 87% 30.09 in 2.5 mi ESE 8.1 mph - 0.06 in Rain Rain
4:56 AM 32.0 °F 25.6 °F 30.9 °F 96% 30.09 in 2.5 mi ESE 6.9 mph - 0.09 in Rain Rain
5:56 AM 33.1 °F 25.5 °F 32.0 °F 96% 30.05 in 3.0 mi SE 9.2 mph - 0.06 in Rain Light Rain
6:56 AM 33.8 °F 27.7 °F 32.0 °F 93% 30.02 in 3.0 mi ESE 6.9 mph - N/A Rain Light Rain
7:56 AM 34.0 °F 31.0 °F 33.1 °F 96% 30.02 in 5.0 mi ESE 3.5 mph - 0.00 in Rain Light Rain
8:56 AM 34.0 °F - 32.0 °F 92% 29.98 in 3.0 mi Calm Calm - N/A   Overcast
9:09 AM 33.8 °F - 33.8 °F 100% 29.97 in 2.5 mi Calm Calm - N/A   Overcast
9:25 AM 33.8 °F - 33.8 °F 100% 29.96 in 2.0 mi Calm Calm - N/A   Overcast
9:56 AM 34.0 °F - 33.1 °F 96% 29.97 in 2.0 mi Calm Calm - N/A   Overcast
10:12 AM 33.8 °F 28.6 °F 33.8 °F 100% 29.94 in 1.5 mi SSE 5.8 mph - N/A   Overcast
10:53 AM 35.6 °F 32.8 °F 33.8 °F 93% 29.91 in 2.0 mi ESE 3.5 mph - N/A   Overcast
10:56 AM 36.0 °F - 34.0 °F 93% 29.93 in 2.0 mi Calm Calm - N/A   Overcast
11:56 AM 37.0 °F 34.5 °F 36.0 °F 96% 29.87 in 1.8 mi SE 3.5 mph - N/A   Overcast
12:09 PM 37.4 °F 32.8 °F 37.4 °F 100% 29.85 in 2.0 mi East 5.8 mph - N/A   Overcast
12:56 PM 39.9 °F 36.7 °F 37.9 °F 93% 29.81 in 2.0 mi SE 4.6 mph - N/A   Overcast
1:20 PM 41.0 °F 39.0 °F 39.2 °F 93% 29.79 in 1.8 mi SE 3.5 mph - N/A   Overcast
1:27 PM 41.0 °F 38.0 °F 39.2 °F 93% 29.79 in 1.8 mi SE 4.6 mph - N/A   Overcast
1:37 PM 41.0 °F 37.1 °F 39.2 °F 93% 29.78 in 2.0 mi ESE 5.8 mph - N/A   Overcast
1:56 PM 42.1 °F 38.4 °F 39.9 °F 92% 29.78 in 2.0 mi East 5.8 mph - N/A   Overcast
2:56 PM 44.1 °F 41.5 °F 41.0 °F 89% 29.74 in 3.0 mi East 4.6 mph - N/A   Overcast
3:56 PM 44.1 °F 42.5 °F 41.0 °F 89% 29.72 in 3.0 mi South 3.5 mph - N/A   Overcast
4:56 PM 46.9 °F - 44.1 °F 90% 29.70 in 8.0 mi Variable 5.8 mph - N/A   Overcast
5:56 PM 48.0 °F - 45.0 °F 89% 29.69 in 10.0 mi Calm Calm - N/A   Overcast
6:56 PM 42.1 °F - 41.0 °F 96% 29.68 in 4.0 mi Calm Calm - N/A   Overcast
7:06 PM 42.8 °F 40.1 °F 41.0 °F 93% 29.68 in 4.0 mi North 4.6 mph - N/A   Overcast
7:38 PM 39.2 °F 35.9 °F 37.4 °F 93% 29.68 in 4.0 mi North 4.6 mph - N/A   Scattered Clouds
7:56 PM 37.9 °F - 37.0 °F 97% 29.70 in 2.0 mi Calm Calm - N/A   Partly Cloudy
8:13 PM 37.4 °F - 35.6 °F 93% 29.69 in 1.5 mi Calm Calm - N/A   Partly Cloudy
8:32 PM 39.2 °F 30.8 °F 37.4 °F 93% 29.72 in 0.5 mi NW 15.0 mph 19.6 mph N/A Fog Fog
8:56 PM 41.0 °F 34.7 °F 41.0 °F 100% 29.74 in 0.5 mi NW 10.4 mph - N/A   Mostly Cloudy
9:00 PM 41.0 °F 35.2 °F 39.2 °F 93% 29.73 in 1.0 mi NW 9.2 mph - N/A   Mostly Cloudy
9:22 PM 39.2 °F 33.6 °F 39.2 °F 100% 29.75 in 3.0 mi NW 8.1 mph - N/A   Partly Cloudy
9:56 PM 42.1 °F 35.2 °F 36.0 °F 79% 29.77 in 10.0 mi NW 12.7 mph - N/A   Clear
10:56 PM 43.0 °F 33.8 °F 28.9 °F 58% 29.79 in 10.0 mi NW 23.0 mph 32.2 mph N/A   Partly Cloudy
11:56 PM 37.9 °F 30.9 °F 30.0 °F 73% 29.80 in 10.0 mi WNW 10.4 mph - N/A   Mostly Cloudy